Missoula, Montana, United States (59801)
Lat: 46.87N, Lon: 113.99W
Wx Zone: MTZ005
Local Info
Past Weather Observations for Today

NOTE: This archive is for the closest National Weather Service station to Missoula. Information may differ from the station used for current weather conditions.

Click here for Long-term Archive

Time Weather Temperature Dewpoint Humidity Pressure Winds Precip Visibility
08:22
Overcast
Fog And Mist
37°F / 3°C 37°F / 3°C 100% 30.21 in
(1023 mb)
Calm - 3/4SM
08:20
Overcast
Fog And Mist
37°F / 3°C 37°F / 3°C 100% 30.21 in
(1023 mb)
Calm - 1 1/4SM
07:57
Mostly Cloudy
Fog And Mist
37°F / 3°C 36°F / 2°C 93% 30.24 in
(1024 mb)
Calm - 3/4SM
07:53
Partly Cloudy
Fog And Mist
36°F / 2°C 36°F / 2°C 100% 30.24 in
(1024 mb)
Calm - 1 1/2SM
07:51
Partly Cloudy
Fog And Mist
36°F / 2°C 34°F / 1°C 93% 30.24 in
(1024 mb)
Calm - 2SM
07:12
Clear
Fog And Mist
32°F / 0°C 32°F / 0°C 100% 30.24 in
(1024 mb)
Calm - 2SM
06:53
Obscured
Fog
32°F / 0°C 30°F / -1°C 93% 30.24 in
(1024 mb)
Calm - 1/2SM
06:44
Mostly Cloudy
Fog And Mist
30°F / -1°C 30°F / -1°C 100% 30.24 in
(1024 mb)
Calm - 1 1/4SM
06:14
Obscured
Fog And Mist
32°F / 0°C 30°F / -1°C 93% 30.24 in
(1024 mb)
Calm - 3/4SM
05:53
Obscured
Fog And Mist
34°F / 1°C 32°F / 0°C 93% 30.24 in
(1024 mb)
Calm - 3/4SM
05:23
Partly Cloudy
Fog And Mist
34°F / 1°C 32°F / 0°C 93% 30.24 in
(1024 mb)
Calm - 3SM
04:53
Mostly Cloudy
34°F / 1°C 32°F / 0°C 93% 30.24 in
(1024 mb)
Calm - 7SM
04:14
Partly Cloudy
36°F / 2°C 34°F / 1°C 93% 30.24 in
(1024 mb)
Calm - 9SM
04:06
Partly Cloudy
Fog And Mist
36°F / 2°C 34°F / 1°C 93% 30.24 in
(1024 mb)
Calm - 2SM
04:00
Partly Cloudy
Fog And Mist
36°F / 2°C 34°F / 1°C 93% 30.24 in
(1024 mb)
Calm - 1 1/4SM
03:55
Mostly Cloudy
Fog And Mist
36°F / 2°C 34°F / 1°C 93% 30.24 in
(1024 mb)
Calm - 2 1/2SM
03:53
Partly Cloudy
Fog And Mist
36°F / 2°C 34°F / 1°C 93% 30.24 in
(1024 mb)
Calm - 3SM
03:34
Partly Cloudy
36°F / 2°C 34°F / 1°C 93% 30.24 in
(1024 mb)
Calm - 10SM
02:53
Clear
34°F / 1°C 34°F / 1°C 100% 30.27 in
(1025 mb)
Calm - 10SM
01:53
Clear
36°F / 2°C 36°F / 2°C 100% 30.27 in
(1025 mb)
Calm - 10SM
00:53
Clear
37°F / 3°C 36°F / 2°C 93% 30.27 in
(1025 mb)
Calm - 10SM
Time Weather Temperature Dewpoint Humidity Pressure Winds Precip Visibility


Weather for websites

WeatherForYou.com, LLC is not responsible for any damages or problems caused by this service. Current weather conditions are obtained from the closest station including government and personal stations which may have varying degrees of accuracy. Weather forecasts are derived from the NOAA NDFD. Like all things, this site belongs to Jesus Christ... He just trusts me to maintain it. If you have any questions or comments email webmaster@weatherforyou.com

Copyright © 2015, WeatherForYou.com LLC. All rights reserved.